Year,Month,Day,Hour,Minute,Value (Times are PST for insolation in W/m^2)
2011,05,31,00,00,0.00
2011,05,31,00,01,0.00
2011,05,31,00,02,0.00
2011,05,31,00,03,0.00
2011,05,31,00,04,0.00
2011,05,31,00,05,0.00
2011,05,31,00,06,0.00
2011,05,31,00,07,0.00
2011,05,31,00,08,0.00
2011,05,31,00,09,0.00
2011,05,31,00,10,0.00
2011,05,31,00,11,0.00
2011,05,31,00,12,0.00
2011,05,31,00,13,0.00
2011,05,31,00,14,0.00
2011,05,31,00,15,0.00
2011,05,31,00,16,0.00
2011,05,31,00,17,0.00
2011,05,31,00,18,0.00
2011,05,31,00,19,0.00
2011,05,31,00,20,0.00
2011,05,31,00,21,0.00
2011,05,31,00,22,0.00
2011,05,31,00,23,0.00
2011,05,31,00,24,0.00
2011,05,31,00,25,0.00
2011,05,31,00,26,0.00
2011,05,31,00,27,0.00
2011,05,31,00,28,0.00
2011,05,31,00,29,0.00
2011,05,31,00,30,0.00
2011,05,31,00,31,0.00
2011,05,31,00,32,0.00
2011,05,31,00,33,0.00
2011,05,31,00,34,0.00
2011,05,31,00,35,0.00
2011,05,31,00,36,0.00
2011,05,31,00,37,0.00
2011,05,31,00,38,0.00
2011,05,31,00,39,0.00
2011,05,31,00,40,0.00
2011,05,31,00,41,0.00
2011,05,31,00,42,0.00
2011,05,31,00,43,0.00
2011,05,31,00,44,0.00
2011,05,31,00,45,0.00
2011,05,31,00,46,0.00
2011,05,31,00,47,0.00
2011,05,31,00,48,0.00
2011,05,31,00,49,0.00
2011,05,31,00,50,0.00
2011,05,31,00,51,0.00
2011,05,31,00,52,0.00
2011,05,31,00,53,0.00
2011,05,31,00,54,0.00
2011,05,31,00,55,0.00
2011,05,31,00,56,0.00
2011,05,31,00,57,0.00
2011,05,31,00,58,0.00
2011,05,31,00,59,0.00
2011,05,31,01,00,0.00
2011,05,31,01,01,0.00
2011,05,31,01,02,0.00
2011,05,31,01,03,0.00
2011,05,31,01,04,0.00
2011,05,31,01,05,0.00
2011,05,31,01,06,0.00
2011,05,31,01,07,0.00
2011,05,31,01,08,0.00
2011,05,31,01,09,0.00
2011,05,31,01,10,0.00
2011,05,31,01,11,0.00
2011,05,31,01,12,0.00
2011,05,31,01,13,0.00
2011,05,31,01,14,0.00
2011,05,31,01,15,0.00
2011,05,31,01,16,0.00
2011,05,31,01,17,0.00
2011,05,31,01,18,0.00
2011,05,31,01,19,0.00
2011,05,31,01,20,0.00
2011,05,31,01,21,0.00
2011,05,31,01,22,0.00
2011,05,31,01,23,0.00
2011,05,31,01,24,0.00
2011,05,31,01,25,0.00
2011,05,31,01,26,0.00
2011,05,31,01,27,0.00
2011,05,31,01,28,0.00
2011,05,31,01,29,0.00
2011,05,31,01,30,0.00
2011,05,31,01,31,0.00
2011,05,31,01,32,0.00
2011,05,31,01,33,0.00
2011,05,31,01,34,0.00
2011,05,31,01,35,0.00
2011,05,31,01,36,0.00
2011,05,31,01,37,0.00
2011,05,31,01,38,0.00
2011,05,31,01,39,0.00
2011,05,31,01,40,0.00
2011,05,31,01,41,0.00
2011,05,31,01,42,0.00
2011,05,31,01,43,0.00
2011,05,31,01,44,0.00
2011,05,31,01,45,0.00
2011,05,31,01,46,0.00
2011,05,31,01,47,0.00
2011,05,31,01,48,0.00
2011,05,31,01,49,0.00
2011,05,31,01,50,0.00
2011,05,31,01,51,0.00
2011,05,31,01,52,0.00
2011,05,31,01,53,0.00
2011,05,31,01,54,0.00
2011,05,31,01,55,0.00
2011,05,31,01,56,0.00
2011,05,31,01,57,0.00
2011,05,31,01,58,0.00
2011,05,31,01,59,0.00
2011,05,31,02,00,0.00
2011,05,31,02,01,0.00
2011,05,31,02,02,0.00
2011,05,31,02,03,0.00
2011,05,31,02,04,0.00
2011,05,31,02,05,0.00
2011,05,31,02,06,0.00
2011,05,31,02,07,0.00
2011,05,31,02,08,0.00
2011,05,31,02,09,0.00
2011,05,31,02,10,0.00
2011,05,31,02,11,0.00
2011,05,31,02,12,0.00
2011,05,31,02,13,0.00
2011,05,31,02,14,0.00
2011,05,31,02,15,0.00
2011,05,31,02,16,0.00
2011,05,31,02,17,0.00
2011,05,31,02,18,0.00
2011,05,31,02,19,0.00
2011,05,31,02,20,0.00
2011,05,31,02,21,0.00
2011,05,31,02,22,0.00
2011,05,31,02,23,0.00
2011,05,31,02,24,0.00
2011,05,31,02,25,0.00
2011,05,31,02,26,0.00
2011,05,31,02,27,0.00
2011,05,31,02,28,0.00
2011,05,31,02,29,0.00
2011,05,31,02,30,0.00
2011,05,31,02,31,0.00
2011,05,31,02,32,0.00
2011,05,31,02,33,0.00
2011,05,31,02,34,0.00
2011,05,31,02,35,0.00
2011,05,31,02,36,0.00
2011,05,31,02,37,0.00
2011,05,31,02,38,0.00
2011,05,31,02,39,0.00
2011,05,31,02,40,0.00
2011,05,31,02,41,0.00
2011,05,31,02,42,0.00
2011,05,31,02,43,0.00
2011,05,31,02,44,0.00
2011,05,31,02,45,0.00
2011,05,31,02,46,0.00
2011,05,31,02,47,0.00
2011,05,31,02,48,0.00
2011,05,31,02,49,0.00
2011,05,31,02,50,0.00
2011,05,31,02,51,0.00
2011,05,31,02,52,0.00
2011,05,31,02,53,0.00
2011,05,31,02,54,0.00
2011,05,31,02,55,0.00
2011,05,31,02,56,0.00
2011,05,31,02,57,0.00
2011,05,31,02,58,0.00
2011,05,31,02,59,0.00
2011,05,31,03,00,0.00
2011,05,31,03,01,0.00
2011,05,31,03,02,0.00
2011,05,31,03,03,0.00
2011,05,31,03,04,0.00
2011,05,31,03,05,0.00
2011,05,31,03,06,0.00
2011,05,31,03,07,0.00
2011,05,31,03,08,0.00
2011,05,31,03,09,0.00
2011,05,31,03,10,0.00
2011,05,31,03,11,0.00
2011,05,31,03,12,0.00
2011,05,31,03,13,0.00
2011,05,31,03,14,0.00
2011,05,31,03,15,0.00
2011,05,31,03,16,0.00
2011,05,31,03,17,0.00
2011,05,31,03,18,0.00
2011,05,31,03,19,0.00
2011,05,31,03,20,0.00
2011,05,31,03,21,0.00
2011,05,31,03,22,0.00
2011,05,31,03,23,0.00
2011,05,31,03,24,0.00
2011,05,31,03,25,0.00
2011,05,31,03,26,0.00
2011,05,31,03,27,0.00
2011,05,31,03,28,0.00
2011,05,31,03,29,0.00
2011,05,31,03,30,0.00
2011,05,31,03,31,0.00
2011,05,31,03,32,0.00
2011,05,31,03,33,0.00
2011,05,31,03,34,0.00
2011,05,31,03,35,0.00
2011,05,31,03,36,0.00
2011,05,31,03,37,0.00
2011,05,31,03,38,0.00
2011,05,31,03,39,0.00
2011,05,31,03,40,0.00
2011,05,31,03,41,0.00
2011,05,31,03,42,0.00
2011,05,31,03,43,0.00
2011,05,31,03,44,0.00
2011,05,31,03,45,0.00
2011,05,31,03,46,0.00
2011,05,31,03,47,0.00
2011,05,31,03,48,0.00
2011,05,31,03,49,0.00
2011,05,31,03,50,0.00
2011,05,31,03,51,0.00
2011,05,31,03,52,0.00
2011,05,31,03,53,0.00
2011,05,31,03,54,0.00
2011,05,31,03,55,0.00
2011,05,31,03,56,0.00
2011,05,31,03,57,0.00
2011,05,31,03,58,0.00
2011,05,31,03,59,0.00
2011,05,31,04,00,0.00
2011,05,31,04,01,0.00
2011,05,31,04,02,0.00
2011,05,31,04,03,0.00
2011,05,31,04,04,0.00
2011,05,31,04,05,0.00
2011,05,31,04,06,0.00
2011,05,31,04,07,0.00
2011,05,31,04,08,0.00
2011,05,31,04,09,0.00
2011,05,31,04,10,0.00
2011,05,31,04,11,0.00
2011,05,31,04,12,0.00
2011,05,31,04,13,0.00
2011,05,31,04,14,0.00
2011,05,31,04,15,0.00
2011,05,31,04,16,0.00
2011,05,31,04,17,0.00
2011,05,31,04,18,0.00
2011,05,31,04,19,0.00
2011,05,31,04,20,0.00
2011,05,31,04,21,0.00
2011,05,31,04,22,0.00
2011,05,31,04,23,0.00
2011,05,31,04,24,0.00
2011,05,31,04,25,0.00
2011,05,31,04,26,0.00
2011,05,31,04,27,0.00
2011,05,31,04,28,0.00
2011,05,31,04,29,0.00
2011,05,31,04,30,0.00
2011,05,31,04,31,0.00
2011,05,31,04,32,0.00
2011,05,31,04,33,0.00
2011,05,31,04,34,0.00
2011,05,31,04,35,0.00
2011,05,31,04,36,0.00
2011,05,31,04,37,0.00
2011,05,31,04,38,0.00
2011,05,31,04,39,0.00
2011,05,31,04,40,0.00
2011,05,31,04,41,0.00
2011,05,31,04,42,0.00
2011,05,31,04,43,0.00
2011,05,31,04,44,0.00
2011,05,31,04,45,0.00
2011,05,31,04,46,0.00
2011,05,31,04,47,0.00
2011,05,31,04,48,0.00
2011,05,31,04,49,0.00
2011,05,31,04,50,0.00
2011,05,31,04,51,0.00
2011,05,31,04,52,0.00
2011,05,31,04,53,0.00
2011,05,31,04,54,0.00
2011,05,31,04,55,0.00
2011,05,31,04,56,0.00
2011,05,31,04,57,0.00
2011,05,31,04,58,0.00
2011,05,31,04,59,0.00
2011,05,31,05,00,0.00
2011,05,31,05,01,0.00
2011,05,31,05,02,0.00
2011,05,31,05,03,0.00
2011,05,31,05,04,0.00
2011,05,31,05,05,0.00
2011,05,31,05,06,0.00
2011,05,31,05,07,0.00
2011,05,31,05,08,0.00
2011,05,31,05,09,0.00
2011,05,31,05,10,0.00
2011,05,31,05,11,0.00
2011,05,31,05,12,0.00
2011,05,31,05,13,0.00
2011,05,31,05,14,0.00
2011,05,31,05,15,0.00
2011,05,31,05,16,4.80
2011,05,31,05,17,5.00
2011,05,31,05,18,5.00
2011,05,31,05,19,5.00
2011,05,31,05,20,5.00
2011,05,31,05,21,5.50
2011,05,31,05,22,7.00
2011,05,31,05,23,7.00
2011,05,31,05,24,7.00
2011,05,31,05,25,7.00
2011,05,31,05,26,7.80
2011,05,31,05,27,9.00
2011,05,31,05,28,9.00
2011,05,31,05,29,9.00
2011,05,31,05,30,9.00
2011,05,31,05,31,10.30
2011,05,31,05,32,11.00
2011,05,31,05,33,11.00
2011,05,31,05,34,11.80
2011,05,31,05,35,12.00
2011,05,31,05,36,13.70
2011,05,31,05,37,14.00
2011,05,31,05,38,14.00
2011,05,31,05,39,15.90
2011,05,31,05,40,16.10
2011,05,31,05,41,18.00
2011,05,31,05,42,18.00
2011,05,31,05,43,18.20
2011,05,31,05,44,19.00
2011,05,31,05,45,19.00
2011,05,31,05,46,19.00
2011,05,31,05,47,19.00
2011,05,31,05,48,19.00
2011,05,31,05,49,19.00
2011,05,31,05,50,19.00
2011,05,31,05,51,20.10
2011,05,31,05,52,21.00
2011,05,31,05,53,21.00
2011,05,31,05,54,21.00
2011,05,31,05,55,22.40
2011,05,31,05,56,23.00
2011,05,31,05,57,23.00
2011,05,31,05,58,23.00
2011,05,31,05,59,23.00
2011,05,31,06,00,24.80
2011,05,31,06,01,25.00
2011,05,31,06,02,26.00
2011,05,31,06,03,26.40
2011,05,31,06,04,30.20
2011,05,31,06,05,32.00
2011,05,31,06,06,32.60
2011,05,31,06,07,35.40
2011,05,31,06,08,37.50
2011,05,31,06,09,39.00
2011,05,31,06,10,39.00
2011,05,31,06,11,39.00
2011,05,31,06,12,39.00
2011,05,31,06,13,38.10
2011,05,31,06,14,38.00
2011,05,31,06,15,39.00
2011,05,31,06,16,39.60
2011,05,31,06,17,40.00
2011,05,31,06,18,40.00
2011,05,31,06,19,41.50
2011,05,31,06,20,43.60
2011,05,31,06,21,44.00
2011,05,31,06,22,44.00
2011,05,31,06,23,45.80
2011,05,31,06,24,46.00
2011,05,31,06,25,47.00
2011,05,31,06,26,47.10
2011,05,31,06,27,49.00
2011,05,31,06,28,49.30
2011,05,31,06,29,51.00
2011,05,31,06,30,51.00
2011,05,31,06,31,51.00
2011,05,31,06,32,51.60
2011,05,31,06,33,53.30
2011,05,31,06,34,54.70
2011,05,31,06,35,57.60
2011,05,31,06,36,61.30
2011,05,31,06,37,64.00
2011,05,31,06,38,67.30
2011,05,31,06,39,70.80
2011,05,31,06,40,73.30
2011,05,31,06,41,75.40
2011,05,31,06,42,76.00
2011,05,31,06,43,76.00
2011,05,31,06,44,76.00
2011,05,31,06,45,76.80
2011,05,31,06,46,78.80
2011,05,31,06,47,83.80
2011,05,31,06,48,91.00
2011,05,31,06,49,95.20
2011,05,31,06,50,97.00
2011,05,31,06,51,97.20
2011,05,31,06,52,102.00
2011,05,31,06,53,114.80
2011,05,31,06,54,102.60
2011,05,31,06,55,95.80
2011,05,31,06,56,92.30
2011,05,31,06,57,91.70
2011,05,31,06,58,94.60
2011,05,31,06,59,114.50
2011,05,31,07,00,132.00
2011,05,31,07,01,152.50
2011,05,31,07,02,166.10
2011,05,31,07,03,139.10
2011,05,31,07,04,169.50
2011,05,31,07,05,206.40
2011,05,31,07,06,213.00
2011,05,31,07,07,145.90
2011,05,31,07,08,122.40
2011,05,31,07,09,121.00
2011,05,31,07,10,111.50
2011,05,31,07,11,111.00
2011,05,31,07,12,121.20
2011,05,31,07,13,212.80
2011,05,31,07,14,203.40
2011,05,31,07,15,168.40
2011,05,31,07,16,214.40
2011,05,31,07,17,220.00
2011,05,31,07,18,220.90
2011,05,31,07,19,223.70
2011,05,31,07,20,225.80
2011,05,31,07,21,227.80
2011,05,31,07,22,230.40
2011,05,31,07,23,233.00
2011,05,31,07,24,235.10
2011,05,31,07,25,236.60
2011,05,31,07,26,239.50
2011,05,31,07,27,242.90
2011,05,31,07,28,245.40
2011,05,31,07,29,247.60
2011,05,31,07,30,250.40
2011,05,31,07,31,251.00
2011,05,31,07,32,254.60
2011,05,31,07,33,253.10
2011,05,31,07,34,256.80
2011,05,31,07,35,253.00
2011,05,31,07,36,233.10
2011,05,31,07,37,228.10
2011,05,31,07,38,251.00
2011,05,31,07,39,271.20
2011,05,31,07,40,268.20
2011,05,31,07,41,239.00
2011,05,31,07,42,193.90
2011,05,31,07,43,165.90
2011,05,31,07,44,118.80
2011,05,31,07,45,154.50
2011,05,31,07,46,205.50
2011,05,31,07,47,163.60
2011,05,31,07,48,126.30
2011,05,31,07,49,129.20
2011,05,31,07,50,114.40
2011,05,31,07,51,105.00
2011,05,31,07,52,105.00
2011,05,31,07,53,102.60
2011,05,31,07,54,102.00
2011,05,31,07,55,102.00
2011,05,31,07,56,150.30
2011,05,31,07,57,168.20
2011,05,31,07,58,124.40
2011,05,31,07,59,116.10
2011,05,31,08,00,137.60
2011,05,31,08,01,151.20
2011,05,31,08,02,144.00
2011,05,31,08,03,154.50
2011,05,31,08,04,203.10
2011,05,31,08,05,270.60
2011,05,31,08,06,331.60
2011,05,31,08,07,347.70
2011,05,31,08,08,351.00
2011,05,31,08,09,352.50
2011,05,31,08,10,355.20
2011,05,31,08,11,358.20
2011,05,31,08,12,360.80
2011,05,31,08,13,363.40
2011,05,31,08,14,366.10
2011,05,31,08,15,370.20
2011,05,31,08,16,371.00
2011,05,31,08,17,375.20
2011,05,31,08,18,379.60
2011,05,31,08,19,380.90
2011,05,31,08,20,385.00
2011,05,31,08,21,390.00
2011,05,31,08,22,390.70
2011,05,31,08,23,397.40
2011,05,31,08,24,401.30
2011,05,31,08,25,403.20
2011,05,31,08,26,404.50
2011,05,31,08,27,406.00
2011,05,31,08,28,406.70
2011,05,31,08,29,409.10
2011,05,31,08,30,410.60
2011,05,31,08,31,412.40
2011,05,31,08,32,415.00
2011,05,31,08,33,412.80
2011,05,31,08,34,417.40
2011,05,31,08,35,422.00
2011,05,31,08,36,420.70
2011,05,31,08,37,424.90
2011,05,31,08,38,430.80
2011,05,31,08,39,433.60
2011,05,31,08,40,434.00
2011,05,31,08,41,442.10
2011,05,31,08,42,443.00
2011,05,31,08,43,445.00
2011,05,31,08,44,450.10
2011,05,31,08,45,452.30
2011,05,31,08,46,455.60
2011,05,31,08,47,457.20
2011,05,31,08,48,451.50
2011,05,31,08,49,457.50
2011,05,31,08,50,460.40
2011,05,31,08,51,465.40
2011,05,31,08,52,465.60
2011,05,31,08,53,464.90
2011,05,31,08,54,470.00
2011,05,31,08,55,472.10
2011,05,31,08,56,478.80
2011,05,31,08,57,481.20
2011,05,31,08,58,480.00
2011,05,31,08,59,490.40
2011,05,31,09,00,496.70
2011,05,31,09,01,500.00
2011,05,31,09,02,503.40
2011,05,31,09,03,505.70
2011,05,31,09,04,501.80
2011,05,31,09,05,501.00
2011,05,31,09,06,503.90
2011,05,31,09,07,499.80
2011,05,31,09,08,515.20
2011,05,31,09,09,517.00
2011,05,31,09,10,518.40
2011,05,31,09,11,524.40
2011,05,31,09,12,527.40
2011,05,31,09,13,531.00
2011,05,31,09,14,532.80
2011,05,31,09,15,522.00
2011,05,31,09,16,514.50
2011,05,31,09,17,523.40
2011,05,31,09,18,525.50
2011,05,31,09,19,541.00
2011,05,31,09,20,547.90
2011,05,31,09,21,550.00
2011,05,31,09,22,552.60
2011,05,31,09,23,560.80
2011,05,31,09,24,566.90
2011,05,31,09,25,555.20
2011,05,31,09,26,567.30
2011,05,31,09,27,577.20
2011,05,31,09,28,584.70
2011,05,31,09,29,578.30
2011,05,31,09,30,568.00
2011,05,31,09,31,572.50
2011,05,31,09,32,598.00
2011,05,31,09,33,599.50
2011,05,31,09,34,609.40
2011,05,31,09,35,618.40
2011,05,31,09,36,628.90
2011,05,31,09,37,627.80
2011,05,31,09,38,591.20
2011,05,31,09,39,553.00
2011,05,31,09,40,572.10
2011,05,31,09,41,595.00
2011,05,31,09,42,606.30
2011,05,31,09,43,555.20
2011,05,31,09,44,476.40
2011,05,31,09,45,444.70
2011,05,31,09,46,443.00
2011,05,31,09,47,420.60
2011,05,31,09,48,418.90
2011,05,31,09,49,388.80
2011,05,31,09,50,389.10
2011,05,31,09,51,390.00
2011,05,31,09,52,390.00
2011,05,31,09,53,674.20
2011,05,31,09,54,590.50
2011,05,31,09,55,648.10
2011,05,31,09,56,639.70
2011,05,31,09,57,638.00
2011,05,31,09,58,638.00
2011,05,31,09,59,624.20
2011,05,31,10,00,596.90
2011,05,31,10,01,575.90
2011,05,31,10,02,506.60
2011,05,31,10,03,490.40
2011,05,31,10,04,533.50
2011,05,31,10,05,593.20
2011,05,31,10,06,662.00
2011,05,31,10,07,701.40
2011,05,31,10,08,710.50
2011,05,31,10,09,669.30
2011,05,31,10,10,684.00
2011,05,31,10,11,694.00
2011,05,31,10,12,690.00
2011,05,31,10,13,710.40
2011,05,31,10,14,714.00
2011,05,31,10,15,675.00
2011,05,31,10,16,692.50
2011,05,31,10,17,663.20
2011,05,31,10,18,661.50
2011,05,31,10,19,697.40
2011,05,31,10,20,714.00
2011,05,31,10,21,711.10
2011,05,31,10,22,714.00
2011,05,31,10,23,714.00
2011,05,31,10,24,715.10
2011,05,31,10,25,713.00
2011,05,31,10,26,705.00
2011,05,31,10,27,708.80
2011,05,31,10,28,709.80
2011,05,31,10,29,711.60
2011,05,31,10,30,681.40
2011,05,31,10,31,683.00
2011,05,31,10,32,647.00
2011,05,31,10,33,612.50
2011,05,31,10,34,608.00
2011,05,31,10,35,608.00
2011,05,31,10,36,730.40
2011,05,31,10,37,744.90
2011,05,31,10,38,748.80
2011,05,31,10,39,751.00
2011,05,31,10,40,751.90
2011,05,31,10,41,751.00
2011,05,31,10,42,751.00
2011,05,31,10,43,749.60
2011,05,31,10,44,746.50
2011,05,31,10,45,754.60
2011,05,31,10,46,755.40
2011,05,31,10,47,754.70
2011,05,31,10,48,756.00
2011,05,31,10,49,757.30
2011,05,31,10,50,760.00
2011,05,31,10,51,759.80
2011,05,31,10,52,760.20
2011,05,31,10,53,762.20
2011,05,31,10,54,763.00
2011,05,31,10,55,764.50
2011,05,31,10,56,765.00
2011,05,31,10,57,765.00
2011,05,31,10,58,765.00
2011,05,31,10,59,765.80
2011,05,31,11,00,767.90
2011,05,31,11,01,771.80
2011,05,31,11,02,772.00
2011,05,31,11,03,771.80
2011,05,31,11,04,770.00
2011,05,31,11,05,770.60
2011,05,31,11,06,772.80
2011,05,31,11,07,772.30
2011,05,31,11,08,772.10
2011,05,31,11,09,770.70
2011,05,31,11,10,769.60
2011,05,31,11,11,768.70
2011,05,31,11,12,768.70
2011,05,31,11,13,765.50
2011,05,31,11,14,741.80
2011,05,31,11,15,740.00
2011,05,31,11,16,762.10
2011,05,31,11,17,762.20
2011,05,31,11,18,726.00
2011,05,31,11,19,705.50
2011,05,31,11,20,718.20
2011,05,31,11,21,723.70
2011,05,31,11,22,711.50
2011,05,31,11,23,729.00
2011,05,31,11,24,738.00
2011,05,31,11,25,721.00
2011,05,31,11,26,716.80
2011,05,31,11,27,679.00
2011,05,31,11,28,666.20
2011,05,31,11,29,621.20
2011,05,31,11,30,640.50
2011,05,31,11,31,643.50
2011,05,31,11,32,638.20
2011,05,31,11,33,615.60
2011,05,31,11,34,613.60
2011,05,31,11,35,626.20
2011,05,31,11,36,645.00
2011,05,31,11,37,661.00
2011,05,31,11,38,665.20
2011,05,31,11,39,666.70
2011,05,31,11,40,664.00
2011,05,31,11,41,658.10
2011,05,31,11,42,656.00
2011,05,31,11,43,639.20
2011,05,31,11,44,631.60
2011,05,31,11,45,631.00
2011,05,31,11,46,664.20
2011,05,31,11,47,638.00
2011,05,31,11,48,636.00
2011,05,31,11,49,636.00
2011,05,31,11,50,634.70
2011,05,31,11,51,623.00
2011,05,31,11,52,609.00
2011,05,31,11,53,575.50
2011,05,31,11,54,581.70
2011,05,31,11,55,608.50
2011,05,31,11,56,611.40
2011,05,31,11,57,625.40
2011,05,31,11,58,660.50
2011,05,31,11,59,676.50
2011,05,31,12,00,680.90
2011,05,31,12,01,685.70
2011,05,31,12,02,697.40
2011,05,31,12,03,712.10
2011,05,31,12,04,741.50
2011,05,31,12,05,767.80
2011,05,31,12,06,803.30
2011,05,31,12,07,809.00
2011,05,31,12,08,809.00
2011,05,31,12,09,811.80
2011,05,31,12,10,786.00
2011,05,31,12,11,725.20
2011,05,31,12,12,656.00
2011,05,31,12,13,647.50
2011,05,31,12,14,603.40
2011,05,31,12,15,616.00
2011,05,31,12,16,587.70
2011,05,31,12,17,545.20
2011,05,31,12,18,511.30
2011,05,31,12,19,506.50
2011,05,31,12,20,500.40
2011,05,31,12,21,492.50
2011,05,31,12,22,488.00
2011,05,31,12,23,485.90
2011,05,31,12,24,475.70
2011,05,31,12,25,466.00
2011,05,31,12,26,460.80
2011,05,31,12,27,455.40
2011,05,31,12,28,447.70
2011,05,31,12,29,446.00
2011,05,31,12,30,452.40
2011,05,31,12,31,456.50
2011,05,31,12,32,455.10
2011,05,31,12,33,456.90
2011,05,31,12,34,460.50
2011,05,31,12,35,452.70
2011,05,31,12,36,458.40
2011,05,31,12,37,454.20
2011,05,31,12,38,450.00
2011,05,31,12,39,450.00
2011,05,31,12,40,453.50
2011,05,31,12,41,461.00
2011,05,31,12,42,465.00
2011,05,31,12,43,468.80
2011,05,31,12,44,472.00
2011,05,31,12,45,479.00
2011,05,31,12,46,482.90
2011,05,31,12,47,477.80
2011,05,31,12,48,465.90
2011,05,31,12,49,464.70
2011,05,31,12,50,468.20
2011,05,31,12,51,472.20
2011,05,31,12,52,478.60
2011,05,31,12,53,531.00
2011,05,31,12,54,569.50
2011,05,31,12,55,566.70
2011,05,31,12,56,621.10
2011,05,31,12,57,647.00
2011,05,31,12,58,640.40
2011,05,31,12,59,578.20
2011,05,31,13,00,527.30
2011,05,31,13,01,468.80
2011,05,31,13,02,519.60
2011,05,31,13,03,482.90
2011,05,31,13,04,495.90
2011,05,31,13,05,490.00
2011,05,31,13,06,499.00
2011,05,31,13,07,514.70
2011,05,31,13,08,526.50
2011,05,31,13,09,539.60
2011,05,31,13,10,532.40
2011,05,31,13,11,498.80
2011,05,31,13,12,482.00
2011,05,31,13,13,482.00
2011,05,31,13,14,459.10
2011,05,31,13,15,428.30
2011,05,31,13,16,416.40
2011,05,31,13,17,408.70
2011,05,31,13,18,416.50
2011,05,31,13,19,417.00
2011,05,31,13,20,451.60
2011,05,31,13,21,483.00
2011,05,31,13,22,505.70
2011,05,31,13,23,642.00
2011,05,31,13,24,673.60
2011,05,31,13,25,797.20
2011,05,31,13,26,779.70
2011,05,31,13,27,758.00
2011,05,31,13,28,753.50
2011,05,31,13,29,719.70
2011,05,31,13,30,674.10
2011,05,31,13,31,645.00
2011,05,31,13,32,622.70
2011,05,31,13,33,611.00
2011,05,31,13,34,600.00
2011,05,31,13,35,592.80
2011,05,31,13,36,582.80
2011,05,31,13,37,577.70
2011,05,31,13,38,573.80
2011,05,31,13,39,578.60
2011,05,31,13,40,569.70
2011,05,31,13,41,566.20
2011,05,31,13,42,544.20
2011,05,31,13,43,525.70
2011,05,31,13,44,519.00
2011,05,31,13,45,515.90
2011,05,31,13,46,494.30
2011,05,31,13,47,477.20
2011,05,31,13,48,464.20
2011,05,31,13,49,459.00
2011,05,31,13,50,459.00
2011,05,31,13,51,452.00
2011,05,31,13,52,432.20
2011,05,31,13,53,415.00
2011,05,31,13,54,406.00
2011,05,31,13,55,389.50
2011,05,31,13,56,369.10
2011,05,31,13,57,357.10
2011,05,31,13,58,347.70
2011,05,31,13,59,338.40
2011,05,31,14,00,330.80
2011,05,31,14,01,323.40
2011,05,31,14,02,316.90
2011,05,31,14,03,310.00
2011,05,31,14,04,304.30
2011,05,31,14,05,299.20
2011,05,31,14,06,294.00
2011,05,31,14,07,293.60
2011,05,31,14,08,290.60
2011,05,31,14,09,294.60
2011,05,31,14,10,297.80
2011,05,31,14,11,301.80
2011,05,31,14,12,304.00
2011,05,31,14,13,304.70
2011,05,31,14,14,306.80
2011,05,31,14,15,308.50
2011,05,31,14,16,309.90
2011,05,31,14,17,313.00
2011,05,31,14,18,316.60
2011,05,31,14,19,319.10
2011,05,31,14,20,321.20
2011,05,31,14,21,324.10
2011,05,31,14,22,328.70
2011,05,31,14,23,336.00
2011,05,31,14,24,343.60
2011,05,31,14,25,351.00
2011,05,31,14,26,359.20
2011,05,31,14,27,368.10
2011,05,31,14,28,370.90
2011,05,31,14,29,375.90
2011,05,31,14,30,374.20
2011,05,31,14,31,380.00
2011,05,31,14,32,407.90
2011,05,31,14,33,434.80
2011,05,31,14,34,441.50
2011,05,31,14,35,459.20
2011,05,31,14,36,489.70
2011,05,31,14,37,503.50
2011,05,31,14,38,461.10
2011,05,31,14,39,423.50
2011,05,31,14,40,392.50
2011,05,31,14,41,361.80
2011,05,31,14,42,339.20
2011,05,31,14,43,330.00
2011,05,31,14,44,302.00
2011,05,31,14,45,273.00
2011,05,31,14,46,260.20
2011,05,31,14,47,257.20
2011,05,31,14,48,261.20
2011,05,31,14,49,272.70
2011,05,31,14,50,288.40
2011,05,31,14,51,305.20
2011,05,31,14,52,314.90
2011,05,31,14,53,311.80
2011,05,31,14,54,298.30
2011,05,31,14,55,281.90
2011,05,31,14,56,276.00
2011,05,31,14,57,278.90
2011,05,31,14,58,289.40
2011,05,31,14,59,298.10
2011,05,31,15,00,306.60
2011,05,31,15,01,312.60
2011,05,31,15,02,311.00
2011,05,31,15,03,292.00
2011,05,31,15,04,263.80
2011,05,31,15,05,239.40
2011,05,31,15,06,220.40
2011,05,31,15,07,208.40
2011,05,31,15,08,201.60
2011,05,31,15,09,199.20
2011,05,31,15,10,197.40
2011,05,31,15,11,197.00
2011,05,31,15,12,195.20
2011,05,31,15,13,195.00
2011,05,31,15,14,195.00
2011,05,31,15,15,195.10
2011,05,31,15,16,197.70
2011,05,31,15,17,205.50
2011,05,31,15,18,217.20
2011,05,31,15,19,234.20
2011,05,31,15,20,250.00
2011,05,31,15,21,259.30
2011,05,31,15,22,285.20
2011,05,31,15,23,299.90
2011,05,31,15,24,316.20
2011,05,31,15,25,331.20
2011,05,31,15,26,341.50
2011,05,31,15,27,344.00
2011,05,31,15,28,343.00
2011,05,31,15,29,330.00
2011,05,31,15,30,319.50
2011,05,31,15,31,319.50
2011,05,31,15,32,320.00
2011,05,31,15,33,337.00
2011,05,31,15,34,352.80
2011,05,31,15,35,358.40
2011,05,31,15,36,355.20
2011,05,31,15,37,359.00
2011,05,31,15,38,367.00
2011,05,31,15,39,372.80
2011,05,31,15,40,419.30
2011,05,31,15,41,391.20
2011,05,31,15,42,406.20
2011,05,31,15,43,399.00
2011,05,31,15,44,399.00
2011,05,31,15,45,402.50
2011,05,31,15,46,414.90
2011,05,31,15,47,429.60
2011,05,31,15,48,435.30
2011,05,31,15,49,405.00
2011,05,31,15,50,351.00
2011,05,31,15,51,315.20
2011,05,31,15,52,301.00
2011,05,31,15,53,299.00
2011,05,31,15,54,306.00
2011,05,31,15,55,324.80
2011,05,31,15,56,322.00
2011,05,31,15,57,385.50
2011,05,31,15,58,396.10
2011,05,31,15,59,438.80
2011,05,31,16,00,441.00
2011,05,31,16,01,441.00
2011,05,31,16,02,472.10
2011,05,31,16,03,741.00
2011,05,31,16,04,679.00
2011,05,31,16,05,679.00
2011,05,31,16,06,651.20
2011,05,31,16,07,593.80
2011,05,31,16,08,654.00
2011,05,31,16,09,717.30
2011,05,31,16,10,835.00
2011,05,31,16,11,835.00
2011,05,31,16,12,835.00
2011,05,31,16,13,835.00
2011,05,31,16,14,811.90
2011,05,31,16,15,768.40
2011,05,31,16,16,770.20
2011,05,31,16,17,766.70
2011,05,31,16,18,736.20
2011,05,31,16,19,744.80
2011,05,31,16,20,714.50
2011,05,31,16,21,660.40
2011,05,31,16,22,664.60
2011,05,31,16,23,691.70
2011,05,31,16,24,669.20
2011,05,31,16,25,633.00
2011,05,31,16,26,628.50
2011,05,31,16,27,705.00
2011,05,31,16,28,695.40
2011,05,31,16,29,653.20
2011,05,31,16,30,650.70
2011,05,31,16,31,672.50
2011,05,31,16,32,673.00
2011,05,31,16,33,670.00
2011,05,31,16,34,666.00
2011,05,31,16,35,658.80
2011,05,31,16,36,655.30
2011,05,31,16,37,651.20
2011,05,31,16,38,647.80
2011,05,31,16,39,645.70
2011,05,31,16,40,641.50
2011,05,31,16,41,631.60
2011,05,31,16,42,629.00
2011,05,31,16,43,632.40
2011,05,31,16,44,628.50
2011,05,31,16,45,630.70
2011,05,31,16,46,628.20
2011,05,31,16,47,612.10
2011,05,31,16,48,578.60
2011,05,31,16,49,562.50
2011,05,31,16,50,543.00
2011,05,31,16,51,545.40
2011,05,31,16,52,557.00
2011,05,31,16,53,561.20
2011,05,31,16,54,559.50
2011,05,31,16,55,562.20
2011,05,31,16,56,560.70
2011,05,31,16,57,559.20
2011,05,31,16,58,567.50
2011,05,31,16,59,586.60
2011,05,31,17,00,594.50
2011,05,31,17,01,593.40
2011,05,31,17,02,591.30
2011,05,31,17,03,589.60
2011,05,31,17,04,587.50
2011,05,31,17,05,584.60
2011,05,31,17,06,584.00
2011,05,31,17,07,582.20